Tracking 19490 objects as of 24-Jan-2019
HD Live streaming from Space Station
objects crossing your sky now

FENGYUN 1C DEB

Track FENGYUN 1C DEB now!
10-day predictions


NORAD ID: 31642
Int'l Code: 1999-025CAY
Perigee: 710.2 km
Apogee: 895.0 km
Inclination: 98.6 °
Period: 100.8 minutes
Semi major axis: 7173 km
RCS: 0.0088 m2 (small)
Launch date: May 10, 1999
Source: People's Republic of China (PRC)
Launch site: Taiyaun Space Center, China (TSC)

Note: This is SATELLITE DEBRIS
aabbcc
Your satellite tracking list
Your tracking list is empty




NASA's NSSDC Master Catalog

Two Line Element Set (TLE):
1 31642U 99025CAY 19023.45526111  .00000087  00000-0  47540-4 0  9990
2 31642  98.6254 112.0460 0128820  96.5229 265.0637 14.28873297611378
Source of the keplerian elements: AFSPC